User: anonymous   Login
Location: Unspecified
(0.0000°N, 0.0000°E)
Time: 22:03:31
(UTC+00:00)
Language:

AAUSAT CUBESAT 2 - Orbit

View from above orbital plane
View from above orbital plane
View from above satellite
View from above satellite

Ground track
Ground track

The orbit data is extracted from the following two-line orbital elements,

1 32788U 08021F   24057.39062535  .00022070  00000-0  12907-2 0  9992
2 32788  97.5875  37.8566 0005982 175.0085 185.1206 15.11862379861502
Epoch (UTC): 26 February 2024 09:22:30
Eccentricity: 0.0005982
inclination: 97.5875°
perigee height: 526 km
apogee height: 534 km
right ascension of ascending node: 37.8566°
argument of perigee: 175.0085°
revolutions per day: 15.11862379
mean anomaly at epoch: 185.1206°
orbit number at epoch: 86150

The dashed part of the orbit path shows where the satellite is in the earth's shadow,  

DLR